Printer-friendly version
Follow the MPC on Twitter Follow the MPC on Facebook The MPC blog
Minor Planet Center

MPEC 2005-V48 : 2005 VN1

The following Minor Planet Electronic Circular may be linked-to from your own Web pages, but must not otherwise be redistributed electronically.

A form allowing access to any MPEC is at the bottom of this page.


Read MPEC 2005-V47 Read MPEC 2005-V49


M.P.E.C. 2005-V48                                Issued 2005 Nov. 5, 12:19 UT

     The Minor Planet Electronic Circulars contain information on unusual
         minor planets and routine data on comets.  They are published
   on behalf of Commission 20 of the International Astronomical Union by the
          Minor Planet Center, Smithsonian Astrophysical Observatory,
                          Cambridge, MA 02138, U.S.A.

                  Supported in part by the Brinson Foundation
                  Supported in part by the TABASGO Foundation
             Prepared using the Tamkin Foundation Computer Network

                              MPC@CFA.HARVARD.EDU
          URL http://cfa-www.harvard.edu/iau/mpc.html  ISSN 1523-6714

                                   2005 VN1

Observations:
     K05V01N  C2005 11 04.44839 04 34 30.81 +01 53 26.2          18.7   EV048704
     K05V01N  C2005 11 04.46034 04 34 29.43 +01 48 52.6          19.4   EV048704
     K05V01N* C2005 11 04.46347 04 34 30.04 +01 47 48.9          18.5 V EV048703
     K05V01N  C2005 11 04.46517 04 34 29.79 +01 47 10.7          18.6 V EV048703
     K05V01N  C2005 11 04.46689 04 34 29.64 +01 46 31.5          18.2 V EV048703
     K05V01N  C2005 11 04.47239 04 34 28.14 +01 44 20.0          19.5   EV048704
     K05V01N  C2005 11 04.48445 04 34 26.85 +01 39 47.3          19.3   EV048704
     K05V01N  C2005 11 04.49325 04 34 26.72 +01 36 35.2          18.5 V EV048703
     K05V01N  C2005 11 04.49357 04 34 26.83 +01 36 28.8          18.6 V EV048703
     K05V01N  C2005 11 04.49389 04 34 26.65 +01 36 22.6          18.5 V EV048703
     K05V01N  C2005 11 04.49420 04 34 26.65 +01 36 15.9          18.6 V EV048703
     K05V01N 5C2005 11 05.38907 04 34 25.05 -03 09 20.8          19.4 R EV048673
     K05V01N 5C2005 11 05.39375 04 34 24.49 -03 10 34.1                 EV048673
     K05V01N 5C2005 11 05.41944 04 34 21.56 -03 17 31.6                 EV048673
     K05V01N 5C2005 11 05.42361 04 34 21.07 -03 18 40.4                 EV048673

Observer details:
673 Table Mountain Observatory, Wrightwood.  Observer J. Young.  0.6-m f/16
    Cassegrain + CCD.
703 Catalina Sky Survey.  Observer R. A. Kowalski.  Measurers E. C. Beshore,
    E. J. Christensen, G. J. Garradd, A. D. Grauer, R. E. Hill, R. A. Kowalski,
    S. M. Larson, R. H. McNaught.  0.68-m Schmidt + CCD.
704 Lincoln Laboratory ETS, New Mexico.  Observers M. Bezpalko, L. Manguso,
    D. Torres, R. Kracke, A. Milner, H. Love.  Measurers J. Stuart, R. Sayer,
    J. Evans, J. Kommers.  1.0-m f/2.15 reflector + CCD.

Orbital elements:
2005 VN1
Epoch 2005 Oct. 17.0 TT = JDT 2453660.5                 MPC
M  11.61252              (2000.0)            P               Q
n   0.59919387     Peri.  137.61804     +0.98785543     +0.04560010
a   1.3934492      Node   220.49749     -0.07903103     +0.97052847
e   0.3234408      Incl.   13.22169     +0.13377498     +0.23663289
P   1.64           H   25.1           G   0.15
From 15 observations 2005 Nov. 4-5.

Ephemeris:
2005 VN1                 a,e,i = 1.39, 0.32, 13                  q = 0.9428
Date    TT    R. A. (2000) Decl.     Delta      r     Elong.  Phase     V
2005 11 06    04 34.25   -05 36.6    0.0342   1.020   145.4    33.6    19.2
2005 11 07    04 33.99   -08 48.8    0.0395   1.023   143.8    34.9    19.6
2005 11 08    04 33.74   -11 13.9    0.0450   1.027   142.6    35.8    19.9
2005 11 09    04 33.49   -13 06.3    0.0505   1.031   141.7    36.6    20.2
2005 11 10    04 33.23   -14 35.4    0.0561   1.034   140.9    37.1    20.4
2005 11 11    04 32.97   -15 47.3    0.0617   1.038   140.3    37.5    20.6
2005 11 12    04 32.71   -16 46.0    0.0674   1.042   139.9    37.8    20.9
2005 11 13    04 32.45   -17 34.4    0.0731   1.046   139.5    37.9    21.0
2005 11 14    04 32.17   -18 14.7    0.0788   1.050   139.1    38.0    21.2
2005 11 15    04 31.90   -18 48.4    0.0846   1.054   138.9    38.1    21.4
2005 11 16    04 31.62   -19 16.6    0.0903   1.058   138.7    38.1    21.5
2005 11 17    04 31.33   -19 40.3    0.0961   1.063   138.5    38.1    21.7
2005 11 18    04 31.04   -20 00.1    0.102    1.067   138.4    38.0    21.8
2005 11 19    04 30.75   -20 16.5    0.108    1.071   138.2    37.9    21.9
2005 11 20    04 30.45   -20 30.1    0.114    1.075   138.1    37.8    22.1
2005 11 21    04 30.16   -20 41.1    0.120    1.080   138.0    37.7    22.2
2005 11 22    04 29.86   -20 49.8    0.126    1.084   137.9    37.6    22.3
2005 11 23    04 29.56   -20 56.5    0.131    1.089   137.9    37.5    22.4
2005 11 24    04 29.27   -21 01.4    0.137    1.093   137.8    37.4    22.5
2005 11 25    04 28.99   -21 04.6    0.143    1.098   137.7    37.2    22.6
2005 11 26    04 28.70   -21 06.3    0.149    1.102   137.7    37.1    22.7

Timothy B. Spahr             (C) Copyright 2005 MPC           M.P.E.C. 2005-V48

Read MPEC 2005-V47 Read MPEC 2005-V49


MPEC number:

Enter an MPEC number in one of the following forms:

  • 1997-B01 (the full form)
  • J97B01 (the packed version of the full form)
  • B01 (the abbreviated form)

Valid HTML 4.01!